EZY6RQ EGPH-EKCH

Flight info

Callsign EZY6RQ
Flight time 0h 47m
Altitude 35000
Route GRICE4D GRICE P600 ASNUD DCT ADN DCT ELSAN DCT VAXIT DCT ABINO T56 TESPI TESPI4C
Aircraft A320/M-SDE3FGHIRWY/LB1

Departure

Time 2026-04-21 21:21
Airport Edinburgh Airport (EGPH)

Arrival

Time 2026-04-21 22:08
Airport Copenhagen Kastrup Airport (EKCH)
Time Latitude Longitude Altitude Speed Heading
2026-04-21 20:50 55.94702 -3.36602 116 ft 0 kts 89°
2026-04-21 21:11 55.94702 -3.36623 116 ft 3 kts 86°
2026-04-21 21:11 55.94700 -3.36659 114 ft 3 kts 79°
2026-04-21 21:11 55.94696 -3.36693 112 ft 3 kts 67°
2026-04-21 21:12 55.94686 -3.36722 114 ft 3 kts 39°
2026-04-21 21:12 55.94674 -3.36735 112 ft 1 kts 360°
2026-04-21 21:12 55.94668 -3.36735 112 ft 0 kts 359°
2026-04-21 21:15 55.94692 -3.36736 113 ft 6 kts 359°
2026-04-21 21:15 55.94754 -3.36747 116 ft 12 kts 337°
2026-04-21 21:16 55.94836 -3.36777 116 ft 13 kts
2026-04-21 21:16 55.94922 -3.36833 116 ft 13 kts 315°
2026-04-21 21:16 55.94903 -3.36968 115 ft 11 kts 239°
2026-04-21 21:16 55.94864 -3.37080 116 ft 10 kts 239°
2026-04-21 21:17 55.94826 -3.37193 114 ft 13 kts 239°
2026-04-21 21:17 55.94768 -3.37360 115 ft 18 kts 238°
2026-04-21 21:17 55.94693 -3.37580 116 ft 23 kts 239°
2026-04-21 21:17 55.94601 -3.37852 113 ft 26 kts 239°
2026-04-21 21:18 55.94511 -3.38119 115 ft 24 kts 239°
2026-04-21 21:18 55.94427 -3.38366 116 ft 22 kts 239°
2026-04-21 21:18 55.94375 -3.38519 114 ft 21 kts 239°
2026-04-21 21:18 55.94303 -3.38734 114 ft 19 kts 239°
2026-04-21 21:19 55.94291 -3.38869 115 ft 10 kts 314°
2026-04-21 21:19 55.94323 -3.38905 116 ft 0 kts 330°
2026-04-21 21:20 55.94363 -3.38946 113 ft 15 kts 330°
2026-04-21 21:20 55.94439 -3.38906 114 ft 13 kts 60°
2026-04-21 21:20 55.94533 -3.38627 112 ft 56 kts 59°
2026-04-21 21:20 55.94854 -3.37679 114 ft 119 kts 59°
2026-04-21 21:21 55.95353 -3.36198 363 ft 145 kts 59°
2026-04-21 21:21 55.95872 -3.34659 1082 ft 145 kts 59°
2026-04-21 21:21 55.96560 -3.33283 1654 ft 158 kts 46°
2026-04-21 21:21 55.97427 -3.31879 2000 ft 179 kts 44°
2026-04-21 21:22 55.98424 -3.30294 2317 ft 204 kts 44°
2026-04-21 21:22 55.99561 -3.28544 2727 ft 229 kts 38°
2026-04-21 21:22 56.01059 -3.27308 3399 ft 246 kts 17°
2026-04-21 21:22 56.02795 -3.27075 4260 ft 257 kts 358°
2026-04-21 21:23 56.04544 -3.27982 5097 ft 270 kts 336°
2026-04-21 21:23 56.06055 -3.30091 5773 ft 284 kts 313°
2026-04-21 21:23 56.07014 -3.33186 5970 ft 288 kts 287°
2026-04-21 21:23 56.07512 -3.36666 6001 ft 289 kts 285°
2026-04-21 21:24 56.08003 -3.40150 6007 ft 289 kts 285°
2026-04-21 21:24 56.08498 -3.43636 6013 ft 289 kts 285°
2026-04-21 21:24 56.09000 -3.47120 6012 ft 289 kts 285°
2026-04-21 21:24 56.09506 -3.50600 6016 ft 289 kts 286°
2026-04-21 21:25 56.10071 -3.54051 6010 ft 288 kts 296°
2026-04-21 21:25 56.11042 -3.57157 6009 ft 287 kts 303°
2026-04-21 21:25 56.12058 -3.60228 6009 ft 286 kts 303°
2026-04-21 21:25 56.13072 -3.63308 6018 ft 287 kts 303°
2026-04-21 21:26 56.14187 -3.66248 6015 ft 283 kts 317°
2026-04-21 21:26 56.15761 -3.68258 6012 ft 276 kts 341°
2026-04-21 21:26 56.17587 -3.69027 6019 ft 267 kts
2026-04-21 21:26 56.19386 -3.68534 6013 ft 259 kts 24°
2026-04-21 21:27 56.20942 -3.66949 6274 ft 260 kts 40°
2026-04-21 21:27 56.22399 -3.65025 7198 ft 261 kts 39°
2026-04-21 21:27 56.23865 -3.63131 7996 ft 265 kts 39°
2026-04-21 21:27 56.25370 -3.61196 8830 ft 268 kts 39°
2026-04-21 21:28 56.26900 -3.59232 9648 ft 272 kts 39°
2026-04-21 21:28 56.28448 -3.57248 10456 ft 275 kts 39°
2026-04-21 21:28 56.35361 -3.48338 11669 ft 350 kts 38°
2026-04-21 21:29 56.39392 -3.43129 12914 ft 361 kts 38°
2026-04-21 21:29 56.43509 -3.37793 14226 ft 368 kts 37°
2026-04-21 21:29 56.47747 -3.32424 15382 ft 376 kts 37°
2026-04-21 21:29 56.52131 -3.27067 16513 ft 383 kts 37°
2026-04-21 21:30 56.56586 -3.21598 17643 ft 390 kts 36°
2026-04-21 21:30 56.61116 -3.15977 18773 ft 398 kts 36°
2026-04-21 21:30 56.65702 -3.10239 19725 ft 404 kts 36°
2026-04-21 21:30 56.70363 -3.04390 20690 ft 409 kts 36°
2026-04-21 21:31 56.75089 -2.98467 21588 ft 415 kts 36°
2026-04-21 21:31 56.79863 -2.92450 22458 ft 420 kts 37°
2026-04-21 21:31 56.84693 -2.86333 23257 ft 425 kts 36°
2026-04-21 21:31 56.89584 -2.80130 24016 ft 430 kts 37°
2026-04-21 21:32 56.95914 -2.72085 24822 ft 436 kts 36°
2026-04-21 21:32 57.05948 -2.59243 25993 ft 444 kts 36°
2026-04-21 21:32 57.16172 -2.46070 27080 ft 450 kts 36°
2026-04-21 21:32 57.26180 -2.31968 27919 ft 456 kts 52°
2026-04-21 21:33 57.29774 -2.10188 28986 ft 450 kts 97°
2026-04-21 21:33 57.27996 -1.87403 30228 ft 447 kts 99°
2026-04-21 21:33 57.26209 -1.64781 31359 ft 444 kts 99°
2026-04-21 21:33 57.24379 -1.42272 32390 ft 443 kts 99°
2026-04-21 21:34 57.22505 -1.19863 33441 ft 441 kts 99°
2026-04-21 21:34 57.20596 -0.97523 34501 ft 439 kts 99°
2026-04-21 21:34 57.18666 -0.75308 35318 ft 439 kts 100°
2026-04-21 21:34 57.16666 -0.52975 35549 ft 442 kts 100°
2026-04-21 21:35 57.14620 -0.30536 35656 ft 440 kts 100°
2026-04-21 21:35 57.10447 0.14007 35572 ft 443 kts 101°
2026-04-21 21:35 57.08292 0.36234 35459 ft 445 kts 101°
2026-04-21 21:36 57.06115 0.58393 35395 ft 443 kts 101°
2026-04-21 21:36 57.01645 1.02520 35502 ft 436 kts 101°
2026-04-21 21:37 56.97673 1.40456 35435 ft 440 kts 102°
2026-04-21 21:37 56.94800 1.67165 35544 ft 442 kts 102°
2026-04-21 21:38 56.89931 2.11218 35523 ft 441 kts 102°
2026-04-21 21:38 56.84905 2.55151 35490 ft 441 kts 103°
2026-04-21 21:39 56.79745 2.98685 35493 ft 440 kts 104°
2026-04-21 21:39 56.74411 3.42298 35506 ft 440 kts 104°
2026-04-21 21:40 56.68978 3.85632 35497 ft 439 kts 104°
2026-04-21 21:40 56.63357 4.28809 35488 ft 437 kts 104°
2026-04-21 21:41 56.57630 4.71686 35469 ft 437 kts 104°
2026-04-21 21:41 56.52208 5.14609 35477 ft 436 kts 99°
2026-04-21 21:42 56.48263 5.57952 35444 ft 437 kts 101°
2026-04-21 21:42 56.43978 6.01172 35451 ft 436 kts 100°
2026-04-21 21:43 56.39554 6.44264 35453 ft 436 kts 100°
2026-04-21 21:43 56.34969 6.87200 35435 ft 436 kts 101°
2026-04-21 21:44 56.30221 7.30109 35435 ft 437 kts 100°
2026-04-21 21:44 56.25357 7.72946 35431 ft 437 kts 100°
2026-04-21 21:45 56.20328 8.15696 35434 ft 437 kts 100°
2026-04-21 21:45 56.15156 8.58276 35430 ft 436 kts 100°
2026-04-21 21:46 56.09841 9.00673 35420 ft 435 kts 100°
2026-04-21 21:46 56.04398 9.42821 35423 ft 435 kts 100°
2026-04-21 21:47 55.98802 9.84962 35424 ft 434 kts 100°
2026-04-21 21:47 55.94906 10.14190 35215 ft 433 kts 99°
2026-04-21 21:47 55.94240 10.19423 34972 ft 432 kts 99°
2026-04-21 21:48 55.93576 10.24642 34728 ft 431 kts 99°
2026-04-21 21:48 55.92905 10.29872 33790 ft 433 kts 99°
2026-04-21 21:48 55.92222 10.35117 32868 ft 433 kts 99°
2026-04-21 21:48 55.91533 10.40340 31942 ft 433 kts 99°
2026-04-21 21:49 55.90842 10.45557 31001 ft 433 kts 99°
2026-04-21 21:49 55.90148 10.50784 29872 ft 435 kts 99°
2026-04-21 21:49 55.89456 10.56039 28761 ft 434 kts 99°
2026-04-21 21:49 55.88800 10.61277 27626 ft 434 kts 99°
2026-04-21 21:50 55.88166 10.66553 26409 ft 437 kts 99°
2026-04-21 21:50 55.87539 10.71864 25231 ft 438 kts 99°
2026-04-21 21:50 55.86909 10.77171 24117 ft 439 kts 99°
2026-04-21 21:50 55.86271 10.82478 22994 ft 438 kts 99°
2026-04-21 21:51 55.85629 10.87727 22215 ft 430 kts 100°
2026-04-21 21:51 55.84988 10.92902 21398 ft 425 kts 100°
2026-04-21 21:51 55.84317 10.97990 20597 ft 421 kts 101°
2026-04-21 21:51 55.83596 11.03017 19812 ft 418 kts 102°
2026-04-21 21:52 55.82845 11.07991 19111 ft 414 kts 103°
2026-04-21 21:52 55.82096 11.12830 18957 ft 397 kts 103°
2026-04-21 21:52 55.81377 11.17470 18832 ft 381 kts 103°
2026-04-21 21:52 55.80694 11.21926 18710 ft 367 kts 102°
2026-04-21 21:53 55.80044 11.26230 18584 ft 354 kts 102°
2026-04-21 21:53 55.79425 11.30376 18456 ft 341 kts 102°
2026-04-21 21:53 55.78825 11.34377 18321 ft 329 kts 102°
2026-04-21 21:53 55.78245 11.38236 18188 ft 318 kts 102°
2026-04-21 21:54 55.77683 11.41984 17942 ft 311 kts 102°
2026-04-21 21:54 55.77295 11.45710 17689 ft 304 kts 92°
2026-04-21 21:54 55.77103 11.49437 17356 ft 302 kts 92°
2026-04-21 21:54 55.76902 11.53146 16949 ft 301 kts 93°
2026-04-21 21:55 55.76697 11.56844 16547 ft 301 kts 93°
2026-04-21 21:55 55.76489 11.60542 16145 ft 301 kts 93°
2026-04-21 21:55 55.76281 11.64232 15742 ft 301 kts 93°
2026-04-21 21:55 55.76071 11.67923 15385 ft 299 kts 94°
2026-04-21 21:56 55.75861 11.71598 14986 ft 299 kts 94°
2026-04-21 21:56 55.75650 11.75248 14606 ft 299 kts 94°
2026-04-21 21:56 55.75437 11.78900 14320 ft 295 kts 94°
2026-04-21 21:56 55.75227 11.82498 13835 ft 291 kts 94°
2026-04-21 21:57 55.75020 11.86057 13317 ft 289 kts 94°
2026-04-21 21:57 55.74813 11.89602 12959 ft 288 kts 94°
2026-04-21 21:57 55.74608 11.93121 12607 ft 286 kts 94°
2026-04-21 21:57 55.74403 11.96614 12263 ft 284 kts 94°
2026-04-21 21:58 55.74194 12.00090 11920 ft 282 kts 94°
2026-04-21 21:58 55.73985 12.03542 11578 ft 281 kts 94°
2026-04-21 21:58 55.73847 12.05828 11361 ft 280 kts 94°
2026-04-21 21:58 55.73638 12.09261 11014 ft 279 kts 94°
2026-04-21 21:59 55.73363 12.13793 10566 ft 278 kts 94°
2026-04-21 21:59 55.73156 12.17193 10225 ft 277 kts 94°
2026-04-21 21:59 55.72949 12.20576 9853 ft 275 kts 94°
2026-04-21 21:59 55.72744 12.23946 9513 ft 274 kts 94°
2026-04-21 22:00 55.72606 12.26215 9290 ft 273 kts 94°
2026-04-21 22:00 55.72402 12.29561 8960 ft 272 kts 94°
2026-04-21 22:00 55.72196 12.32896 8627 ft 271 kts 94°
2026-04-21 22:00 55.71986 12.36210 8296 ft 270 kts 94°
2026-04-21 22:01 55.71775 12.39515 7965 ft 269 kts 95°
2026-04-21 22:01 55.71565 12.42806 7645 ft 268 kts 94°
2026-04-21 22:01 55.71360 12.46048 7314 ft 268 kts 94°
2026-04-21 22:01 55.71242 12.49357 6977 ft 265 kts 84°
2026-04-21 22:02 55.71562 12.52502 6651 ft 261 kts 70°
2026-04-21 22:02 55.72312 12.55454 6326 ft 259 kts 61°
2026-04-21 22:02 55.73122 12.58251 6012 ft 258 kts 61°
2026-04-21 22:02 55.73942 12.61116 5691 ft 256 kts 62°
2026-04-21 22:03 55.74733 12.63890 5386 ft 255 kts 61°
2026-04-21 22:03 55.75529 12.66689 5045 ft 253 kts 61°
2026-04-21 22:03 55.76318 12.69482 4679 ft 252 kts 61°
2026-04-21 22:03 55.77095 12.72267 4315 ft 252 kts 61°
2026-04-21 22:04 55.77823 12.75092 3946 ft 252 kts 70°
2026-04-21 22:04 55.77907 12.78204 3586 ft 259 kts 99°
2026-04-21 22:04 55.77097 12.81070 3223 ft 265 kts 129°
2026-04-21 22:04 55.75591 12.82904 2873 ft 265 kts 160°
2026-04-21 22:05 55.73784 12.83161 2540 ft 261 kts 193°
2026-04-21 22:05 55.72192 12.81799 2209 ft 252 kts 223°
2026-04-21 22:05 55.70893 12.79786 2010 ft 241 kts 225°
2026-04-21 22:05 55.69686 12.77880 1891 ft 226 kts 225°
2026-04-21 22:06 55.68535 12.76081 1631 ft 216 kts 225°
2026-04-21 22:06 55.67448 12.74390 1384 ft 198 kts 226°
2026-04-21 22:06 55.66460 12.72857 1093 ft 180 kts 226°
2026-04-21 22:06 55.65558 12.71454 852 ft 165 kts 226°
2026-04-21 22:07 55.64725 12.70155 632 ft 153 kts 224°
2026-04-21 22:07 55.63946 12.68951 415 ft 145 kts 224°
2026-04-21 22:07 55.63202 12.67783 245 ft 141 kts 224°
2026-04-21 22:07 55.62466 12.66649 49 ft 140 kts 223°
2026-04-21 22:08 55.61801 12.65610 18 ft 109 kts 221°
2026-04-21 22:08 55.61358 12.64924 19 ft 60 kts 221°
2026-04-21 22:08 55.61248 12.64642 17 ft 13 kts 284°
2026-04-21 22:08 55.61230 12.64497 17 ft 11 kts 251°
2026-04-21 22:09 55.61224 12.64468 17 ft 0 kts 252°
2026-04-21 22:10 55.61221 12.64455 17 ft 2 kts 251°
2026-04-21 22:11 55.61212 12.64407 17 ft 6 kts 251°
2026-04-21 22:11 55.61195 12.64313 17 ft 11 kts 252°
2026-04-21 22:11 55.61207 12.64124 17 ft 21 kts 319°
2026-04-21 22:11 55.61352 12.64195 17 ft 25 kts 33°
2026-04-21 22:12 55.61499 12.64369 19 ft 26 kts 34°
2026-04-21 22:12 55.61655 12.64543 19 ft 23 kts 33°
2026-04-21 22:12 55.61796 12.64709 17 ft 25 kts 33°
2026-04-21 22:12 55.61944 12.64877 17 ft 17 kts 33°
2026-04-21 22:13 55.62041 12.64990 18 ft 17 kts 33°
2026-04-21 22:13 55.62127 12.65088 18 ft 10 kts 33°
2026-04-21 22:13 55.62186 12.65156 18 ft 10 kts 33°
2026-04-21 22:13 55.62241 12.65200 17 ft 8 kts
2026-04-21 22:14 55.62286 12.65217 17 ft 5 kts 53°
2026-04-21 22:14 55.62291 12.65286 17 ft 8 kts 87°
2026-04-21 22:14 55.62342 12.65332 17 ft 12 kts 357°
2026-04-21 22:14 55.62425 12.65335 17 ft 8 kts 20°
2026-04-21 22:15 55.62439 12.65410 17 ft 6 kts 89°
2026-04-21 22:15 55.62440 12.65483 17 ft 6 kts 89°
2026-04-21 22:15 55.62455 12.65532 18 ft 5 kts 36°
2026-04-21 22:15 55.62500 12.65561 17 ft 6 kts 23°
2026-04-21 22:16 55.62507 12.65567 17 ft 0 kts 25°
2026-04-21 22:16 55.62510 12.65569 17 ft 0 kts 24°